Crescent City, CA

12:11 PM PST on February 21, 2018 (GMT -0800)
McNamara

Weather History for KCEC - January, 2013

Change the Weather History Date:

Saturday, January 19, 2013

  Actual Average Record
Temperature  
Mean Temperature 41 °F 48 °F  
Max Temperature 50 °F 55 °F 72 °F (1981)
Min Temperature 31 °F 41 °F 31 °F (2013)
Degree Days  
Heating Degree Days 24 17  
Month to date heating degree days 412 323  
Since 1 July heating degree days 2470 2479  
Cooling Degree Days 0 0  
Month to date cooling degree days 0 0  
Year to date cooling degree days 0 0  
Moisture  
Dew Point 37 °F    
Average Humidity 87    
Maximum Humidity 100    
Minimum Humidity 74    
Precipitation  
Precipitation T in 0.31 in 2.45 in (2012)
Month to date precipitation 1.16 7.21  
Year to date precipitation 1.16 7.21  
Since 1 July precipitation 34.86  
Snow  
Snow 0.00 in - - ()
Month to date snowfall 0.0  
Since 1 July snowfall 0.0  
Snow Depth 0.00 in    
Sea Level Pressure  
Sea Level Pressure 30.24 in    
Wind  
Wind Speed 3 mph (North)    
Max Wind Speed 9 mph    
Max Gust Speed 17 mph    
Visibility 3 miles    
Events Fog , Rain    
T = Trace of Precipitation, MM = Missing Value Source: NWS Daily Summary

Daily Weather History Graph

Daily Weather History Graph

Search for Another Location

Airport or City:

Trip Planner

Search our weather history database for the weather conditions in past years. The results will help you decide how hot, cold, wet, or windy it might be!

Date:

Astronomy

Jan. 19, 2013 Rise Set
Actual Time 7:39 AM PST 5:16 PM PST
Civil Twilight 7:09 AM PST 5:46 PM PST
Nautical Twilight 6:35 AM PST 6:21 PM PST
Astronomical Twilight 6:01 AM PST 6:54 PM PST
Moon 11:46 AM PST (1/19) 1:18 AM PST (1/19)
Length of Visible Light 10h 37m
Length of Day
9h 36m
First Quarter, 58% of the Moon is Illuminated
Jan 19
First Quarter
Jan 26
Full
Feb 3
Last Quarter
Feb 9
New
Feb 17
First Quarter

Hourly Weather History & Observations

Time (PST) Temp. Windchill Dew Point Humidity Pressure Visibility Wind Dir Wind Speed Gust Speed Precip Events Conditions
12:56 AM 36.0 °F 33.3 °F 36.0 °F 100% 30.20 in 3.0 mi North 3.5 mph - 0.00 in   Clear
1:18 AM 37.4 °F - 37.4 °F 100% 30.20 in 2.0 mi Calm Calm - N/A   Scattered Clouds
1:20 AM 37.4 °F - 35.6 °F 93% 30.20 in 2.0 mi Calm Calm - N/A   Mostly Cloudy
1:32 AM 37.4 °F 33.8 °F 35.6 °F 93% 30.20 in 1.2 mi NNW 4.6 mph - N/A   Mostly Cloudy
1:41 AM 37.4 °F 34.9 °F 37.4 °F 100% 30.20 in 0.5 mi NNW 3.5 mph - N/A Fog Fog
1:56 AM 37.9 °F 34.4 °F 37.0 °F 97% 30.21 in 0.8 mi NNW 4.6 mph - N/A   Mist
2:46 AM 39.2 °F 37.0 °F 39.2 °F 100% 30.22 in 1.5 mi North 3.5 mph - N/A   Overcast
2:56 AM 39.9 °F - 39.0 °F 97% 30.23 in 1.0 mi Calm Calm - N/A   Overcast
3:12 AM 39.2 °F - 39.2 °F 100% 30.23 in 0.8 mi Calm Calm - N/A   Mist
3:24 AM 39.2 °F - 39.2 °F 100% 30.23 in 1.0 mi Calm Calm - N/A   Mist
3:31 AM 39.2 °F - 39.2 °F 100% 30.23 in 0.8 mi Calm Calm - N/A   Mist
3:56 AM 37.0 °F 34.5 °F 37.0 °F 100% 30.23 in 0.5 mi North 3.5 mph - 0.00 in Fog , Rain Light Rain
4:11 AM 35.6 °F 32.8 °F 35.6 °F 100% 30.22 in 1.2 mi North 3.5 mph - 0.00 in   Scattered Clouds
4:15 AM 37.4 °F 34.9 °F 37.4 °F 100% 30.22 in 2.0 mi NNE 3.5 mph - 0.00 in   Scattered Clouds
4:35 AM 35.6 °F - 35.6 °F 100% 30.23 in 1.2 mi Calm Calm - 0.00 in   Clear
4:39 AM 33.8 °F - 33.8 °F 100% 30.23 in 1.0 mi Calm Calm - 0.00 in   Mist
4:52 AM 33.8 °F - 33.8 °F 100% 30.23 in 1.2 mi Calm Calm - 0.00 in   Scattered Clouds
4:56 AM 33.1 °F - 33.1 °F 100% 30.23 in 0.8 mi Calm Calm - 0.00 in   Mist
5:56 AM 34.0 °F - 34.0 °F 100% 30.25 in 1.0 mi Calm Calm - 0.00 in   Mist
6:00 AM 35.6 °F 32.8 °F 35.6 °F 100% 30.24 in 1.5 mi North 3.5 mph - N/A   Scattered Clouds
6:08 AM 35.6 °F 31.7 °F 35.6 °F 100% 30.24 in 3.0 mi North 4.6 mph - N/A   Partly Cloudy
6:15 AM 35.6 °F - 35.6 °F 100% 30.24 in 1.8 mi Calm Calm - N/A   Clear
6:17 AM 35.6 °F 32.8 °F 35.6 °F 100% 30.24 in 1.0 mi NNE 3.5 mph - N/A   Mist
6:24 AM 33.8 °F - 33.8 °F 100% 30.24 in 0.5 mi Calm Calm - 0.00 in Fog , Rain Light Rain
6:42 AM 33.8 °F - 32.0 °F 93% 30.24 in 1.2 mi Calm Calm - 0.00 in   Scattered Clouds
6:56 AM 32.0 °F - 32.0 °F 100% 30.25 in 1.0 mi Calm Calm - 0.00 in   Mist
7:08 AM 30.2 °F - 30.2 °F 100% 30.25 in 0.8 mi Calm Calm - 0.00 in   Mist
7:25 AM 33.8 °F - 33.8 °F 100% 30.25 in 1.2 mi Calm Calm - 0.00 in   Partly Cloudy
7:30 AM 33.8 °F - 33.8 °F 100% 30.25 in 0.8 mi Calm Calm - 0.00 in   Mist
7:39 AM 33.8 °F - 33.8 °F 100% 30.25 in 0.2 mi Calm Calm - 0.00 in Fog Fog
7:48 AM 35.6 °F 32.8 °F 33.8 °F 93% 30.25 in 1.8 mi North 3.5 mph - 0.00 in   Clear
7:52 AM 35.6 °F 32.8 °F 35.6 °F 100% 30.25 in 4.0 mi North 3.5 mph - 0.00 in   Clear
7:56 AM 35.1 °F 32.2 °F 35.1 °F 100% 30.26 in 4.0 mi North 3.5 mph - 0.00 in   Clear
8:47 AM 37.4 °F - 37.4 °F 100% 30.26 in 2.5 mi Calm Calm - 0.00 in Rain Light Rain
8:51 AM 37.4 °F - 37.4 °F 100% 30.27 in 3.0 mi Calm Calm - 0.00 in   Partly Cloudy
8:56 AM 39.0 °F - 39.0 °F 100% 30.27 in 3.0 mi Calm Calm - 0.00 in   Partly Cloudy
9:56 AM 44.1 °F 41.5 °F 42.1 °F 93% 30.30 in 3.0 mi NNW 4.6 mph - 0.00 in   Scattered Clouds
10:56 AM 46.0 °F 43.9 °F 41.0 °F 83% 30.29 in 9.0 mi North 4.6 mph - N/A   Clear
11:56 AM 48.0 °F - 42.1 °F 80% 30.27 in 7.0 mi NNW 5.8 mph - N/A   Clear
12:56 PM 48.0 °F - 41.0 °F 77% 30.25 in 9.0 mi NNW 6.9 mph - N/A   Clear
1:56 PM 50.0 °F - 42.1 °F 74% 30.24 in 10.0 mi NNW 6.9 mph - N/A   Clear
2:56 PM 48.9 °F - 42.1 °F 77% 30.23 in 10.0 mi NW 6.9 mph - N/A   Clear
3:56 PM 48.0 °F - 42.1 °F 80% 30.23 in 10.0 mi NNW 8.1 mph - N/A   Clear
4:56 PM 46.0 °F 43.1 °F 42.1 °F 86% 30.23 in 6.0 mi NNW 5.8 mph - N/A   Clear
5:56 PM 44.1 °F 41.5 °F 42.1 °F 93% 30.23 in 6.0 mi North 4.6 mph - N/A   Clear
6:56 PM 43.0 °F 40.3 °F 41.0 °F 93% 30.24 in 6.0 mi NNW 4.6 mph - N/A   Clear
7:28 PM 39.2 °F - 37.4 °F 93% 30.23 in 4.0 mi Calm Calm - N/A   Scattered Clouds
7:56 PM 41.0 °F 39.0 °F 39.0 °F 93% 30.24 in 3.0 mi SE 3.5 mph - N/A   Partly Cloudy
8:35 PM 37.4 °F 34.9 °F 37.4 °F 100% 30.24 in 1.8 mi NNE 3.5 mph - N/A   Clear
8:51 PM 37.4 °F - 37.4 °F 100% 30.24 in 1.0 mi Calm Calm - N/A   Mist
8:56 PM 37.0 °F - 37.0 °F 100% 30.25 in 0.5 mi Calm Calm - N/A Fog Fog
9:35 PM 37.4 °F - 37.4 °F 100% 30.25 in 1.2 mi Calm Calm - N/A   Overcast
9:42 PM 35.6 °F - 35.6 °F 100% 30.25 in 1.5 mi Calm Calm - N/A   Overcast
9:46 PM 35.6 °F - 35.6 °F 100% 30.25 in 0.8 mi Calm Calm - N/A   Mist
9:56 PM 36.0 °F - 36.0 °F 100% 30.25 in 0.2 mi Calm Calm - N/A Fog Fog
10:44 PM 35.6 °F 32.8 °F 35.6 °F 100% 30.26 in 1.2 mi NNE 3.5 mph - N/A   Scattered Clouds
10:46 PM 35.6 °F 32.8 °F 35.6 °F 100% 30.26 in 2.5 mi NNE 3.5 mph - N/A   Scattered Clouds
10:53 PM 33.8 °F - 33.8 °F 100% 30.26 in 4.0 mi Calm Calm - N/A   Partly Cloudy
10:56 PM 34.0 °F - 34.0 °F 100% 30.27 in 3.0 mi Calm Calm - N/A   Partly Cloudy
11:46 PM 33.8 °F - 33.8 °F 100% 30.26 in 3.0 mi Calm Calm - N/A   Mostly Cloudy
11:53 PM 33.8 °F - 33.8 °F 100% 30.26 in 2.0 mi Calm Calm - N/A   Mostly Cloudy
11:56 PM 34.0 °F - 34.0 °F 100% 30.26 in 2.0 mi Calm Calm - N/A   Overcast